Погода Новый Торьял

Погода Новый Торьял : погода сейчас, прогноз погоды и архив. Всё, что Вы хотите узнать о погоде Новый Торьял!

Поиск расширенной информации на нашем сайте:

Другие новости

Новости СМИ2

Главная страница сайта

Новости сайта

03.07.2017

Напоминаем, что на нашем специализированном сайте Метеоцентр.Азия вы можете получить высокодетализированные автоматические прогнозы погоды по пунктам России, СНГ и мира в авиационном формате (включающие направление и скорость ветра, видимость, явления погоды, количество и форму облачности, нижнюю и верхнюю границу облачности).


Погода Новый Торьял - сегодня

Время (UTC), дата Ветер
(°,м/с) 
Видим.   Явления Облачность Т
(°С)
Тd
(°С)
f(%) Тe
(°С)
Pmin
(гПа)
dP
(гПа)
Po
(мм)
O2
(г/м3)
Тmin Tmax R s Состояние
почвы
15 14.10.17 130 (ЮВ) 2-4{06}  4000 м  дымка  10/10 300 м 
[St]
+8.7 +7.7 93 +9  1008.7  0.2  744  289    +9.2  0.0     
18 14.10.17 100 (В) 1-3{06}  4000 м  слаб. дождь  10/10 300 м 
[Frnb|Ns]
+8 +7.6 97 +9  1007.7  -1  743  289           
21 14.10.17 100 (В) 1-3{03}  4000 м  слаб. дождь  10/10 300 м 
[Frnb|Ns]
+8 +7.8 99 +9  1005.5  -2.2  741  289           
00 15.10.17 110 (В) 2-4{04}  4000 м  слаб. дождь  10/10 300 м 
[Frnb|Ns]
+8 +7.6 97 +8  1003.1  -2.3  739  288           
03 15.10.17 110 (В) 2-5{05}  4000 м  слаб. дождь  10/10 300 м 
[Frnb|Ns]
+8.3 +7.8 97 +8  1000.6  -2.5  738  287  +7.8       
06 15.10.17 200 (Ю) 5-8{09}  20000 м  {дождь}  10/10 300 м кучево-дожд. 
[Cb calv]
+8.7 +7.3 91 +7  999.4  -1.1  737  286           
09 15.10.17 200 (Ю) 5-8{09}  20000 м    10/10 300 м кучево-дожд. 
[Cb calv]
+8.6 +5.8 83 +7  1000.1  0.6  737  287           
12 15.10.17 170 (Ю) 6-8{11}  20000 м    8/5 300 м кучево-дожд., средняя, верхняя 
[Cb calv|Ac trans|Ci sp]
+9 +5.3 78 +7  999.5  -0.5  737  287           
15 15.10.17 130 (ЮВ) 3-5{08}  4000 м  слаб. дождь  10/10 300 м 
[Frnb|Ns]
+6.4 +5.5 94 +5  999.6  737  289    +9.3     
18 15.10.17 120 (ЮВ) 3-6{08}  20000 м  {дождь}  10/10 300 м 
[Frnb]
+6.9 +5.6 91 +6  999.5  -0.1  737  289           
21 15.10.17 120 (ЮВ) 2-4{08}  20000 м  в посл. час ливневой дождь  9/9 300 м кучево-дожд. 
[Cb cap]
+5.7 +4.5 92 +5  1000  0.3  737  290           
00 16.10.17 120 (ЮВ) 2-3{04}  20000 м  {ливн. осадки}  10/10 300 м кучево-дожд. 
[Cb calv]
+5.4 +4.2 92 +5  1000.8  0.8  738  291           
03 16.10.17 100 (В) 1-2{04}  20000 м  в посл. час ливневой дождь  10/10 300 м кучево-дожд. 
[Cb cap]
+5.4 +4.5 94 +6  1002.4  1.6  739  291  +5.1       
06 16.10.17 тихо () -3  20000 м  {ливн. осадки}  10/10 300 м кучево-дожд. 
[Cb calv]
+6.3 +5.9 97 +6  1003.8  1.5  740  290  +5         
09 16.10.17 тихо () -0{02}  20000 м  в посл. час ливневой дождь  10/10 300 м кучево-дожд. 
[Cb cap]
+8.5 +7.3 92 +9  1005.2  1.4  741  288           
12 16.10.17 070 (В) 1-2{04}  20000 м  {ливн. осадки}  10/10 300 м кучево-дожд. 
[Cb calv]
+8.1 +6.4 89 +9  1006.4  1.2  742  289           
15 16.10.17 020 (С) 2-3{03}  20000 м    10/10 300 м кучево-дожд. 
[Cb calv]
+7 +5.9 93 +7  1007.9  1.4  743  291    +8.5  0.5     
18 16.10.17 010 (С) 2-3{04}  20000 м    10/10 300 м кучево-дожд. 
[Cb calv]
+7 +5.1 88 +7  1008.4  0.5  743  291           
21 16.10.17 010 (С) 1-2{04}  20000 м    8/8 300 м кучево-дожд. 
[Cb calv]
+5.5 +4.6 94 +6  1008  -0.5  743  293           
00 17.10.17 290 (З) 1-2{02}  20000 м    8/8 300 м кучево-дожд. 
[Cb calv]
+5 +4.3 95 +6  1007.6  -0.4  743  293           
03 17.10.17 270 (З) 2-3{03}  20000 м    10/10 300 м кучево-дожд. 
[Cb calv]
+4.8 +4.1 95 +4  1007.1  -0.5  742  293  +4         
06 17.10.17 260 (З) 1-3{04}  1000 м  дымка  10/10 300 м 
[St]
+3.6 +3.1 97 +4  1006.3  -0.9  742  294  +3         
09 17.10.17 230 (ЮЗ) 3-6{07}  20000 м    10/9 300 м кучево-дожд., верхняя 
[Cb calv|Ci sp]
+7.1 +4.1 81 +6  1004.9  -1.2  741  290           
12 17.10.17 290 (З) 3-6{09}  23000 м  слаб. ливневой дождь  10/10 300 м кучево-дожд. 
[Cb cap]
+5.5 +3.8 89 +4  1004  -0.9  740  292           
15 17.10.17 290 (З) 3-5{06}  20000 м  {ливн. осадки}  10/10 300 м кучево-дожд. 
[Cb calv]
+5.2 +4.3 94 +4  1004.8  0.8  741  292    +8     
Время (UTC), дата Ветер
(°,м/с) 
Видим.   Явления Облачность Т
(°С)
Тd
(°С)
f(%) Тe
(°С)
Pmin
(гПа)
dP
(гПа)
Po
(мм)
O2
(г/м3)
Тmin Tmax R s Состояние
почвы

Для получения пояснительной информации подведите курсор к названию столбца.

ПОГОДА Новый Торьял - архив

Всё, что Вы хотите узнать о погоде Новый Торьял - удобно и подробно!

Выберите нужную дату (начиная с 1 января 2015* года) и нажмите кнопку "Найти".
Будут отображены архивные сводки погоды по пункту Новый Торьял, начиная с указанной даты.


Отображать данные в формате CSV (для использования в таблицах Excel)


Внимание! Наш архив погоды предназначен исключительно для личного некоммерческого использования в познавательных целях. Если Вам необходимы официальные справки о состоянии погоды (для производственных, юридических, коммерческих и т.п. целей), обращайтесь в органы Росгидромета.

*Примечание: данная дата относится к архиву по метеостанциям СССР (Россия, СНГ, Балтия).
Архив по метеостанциям Зарубежной Европы и Азии (кроме Китая) хранится 10 дней, по другим регионам земного шара (Китай, Африка, Америка, Австралия, Океания) - 1 день.

Новый Торьял - район местоположения метеостанции


Название, широта, долгота, высота метеостанции:
Новый Торьял 57°ш. 48.7°д. 143 м над ур. моря [Российская Федерация]

Дополнительная информация

В oтличие oт бoльшинства пoгoдных сайтoв мы публикуем пoдрoбную метеoинфoрмацию в детальнoм прoфессиoнальнoм фoрмате.

Характеристики температуры и влажнoсти вoздуха измеряются на высoте 2 м в тени вдали oт зданий и деревьев.
Скoрoсть ветра измеряется на высoте 10 м (на урoвне рoста челoвека скoрoсть ветра ниже в 1.5-2 раза). Если метеoстанция нахoдится в гoрoде или в лесу, тo скoрoсть ветра занижена на 2-4 м/с пo сравнению с oткрытым местoм. Скoрoсть ветра над акватoриями крупных рек и oзёр, а также на вершинах хoлмoв на 2-5 м/с выше, чем в oбычных услoвиях.
Атмoсфернoе давление в разных тoчках местнoсти мoжет значительнo oтличаться oт давления на метеoстанции, в зависимoсти oт услoвий рельефа (при пoдъёме на 10 м давление пoнижается примернo на 1 мм рт.ст.).